Regional Weather Roundup
Issued by NWS San Angelo, TX

Home | Current Version | Previous Version | Text Only | Print | Product List | Glossary On
Versions: 1 2 3 4 5 6 7 8 9 10 11 12 13 14 15 16 17 18 19 20 21 22 23 24 25 26 27 28 29 30 31 32 33 34 35 36 37 38 39 40 41 42 43 44 45 46 47 48 49 50
000
ASUS44 KSJT 281310
RWRSJT
WEST CENTRAL TEXAS REGIONAL WEATHER ROUNDUP
NATIONAL WEATHER SERVICE SAN ANGELO TX
700 AM CST FRI NOV 28 2014

NOTE: "FAIR" INDICATES FEW OR NO CLOUDS BELOW 12,000 FEET WITH NO
SIGNIFICANT WEATHER AND/OR OBSTRUCTIONS TO VISIBILITY.

TXZ049-054-064>066-071>073-076>078-098-099-113-114-127-128-139-140-
154-155-168>170-281400
...LOCATIONS ACROSS WEST CENTRAL TEXAS...

CITY           SKY/WX    TMP DP  RH WIND       PRES   REMARKS
SAN ANGELO     CLEAR     47  43  86 S13       30.22S
ABILENE        CLEAR     48  37  65 S14       30.19F
DYESS AFB      CLEAR     47  36  66 SW20      30.16F WCI  40
JUNCTION       CLOUDY    50  46  86 W6        30.28R
SWEETWATER     CLEAR     44  36  74 S15       30.19F WCI  37
BROWNWOOD      MOCLDY    32  30  93 CALM      30.26S
COLEMAN        SUNNY     41  36  83 S6        30.24R WCI  37
SONORA         CLOUDY    52  48  87 S14       30.30S
OZONA          CLOUDY    46  45  93 S12G18    30.28S FOG
BRADY          NOT AVBL
$$

TEXAS PANHANDLE/OKLAHOMA PANHANDLE

CITY           SKY/WX    TMP DP  RH WIND       PRES   REMARKS
AMARILLO       PTCLDY    38  27  64 SW10      30.06F WCI  31
BORGER         CLEAR     45  27  49 SW16      30.02F WCI  38
CANADIAN       CLEAR     35  30  83 W5        30.01F WCI  31
DALHART        MOCLDY    31  24  75 S3        30.06S
DUMAS            N/A     40  27  61 SW14      30.04S WCI  32
GUYMON         NOT AVBL
HEREFORD       MOSUNNY   36  29  76 MISG      30.10R
PAMPA          SUNNY     42  28  58 W17       30.02F WCI  34
PERRYTON       PTCLDY    33  27  77 W7        29.99S WCI  27
$$

SOUTHERN PANHANDLE/SOUTH PLAINS/ROLLING PLAINS

CITY           SKY/WX    TMP DP  RH WIND       PRES   REMARKS
LUBBOCK        PTCLDY    38  29  70 SW12      30.13F WCI  30
SNYDER         CLEAR     36  32  87 SW5       30.18F WCI  32
CHILDRESS      CLEAR     38  31  76 SW12      30.08F WCI  30
SEMINOLE       MOSUNNY   33  30  88 CALM      30.18S
$$

PERMIAN BASIN

CITY           SKY/WX    TMP DP  RH WIND       PRES   REMARKS
MIDLAND        CLEAR     41  34  76 S8        30.19S WCI  36
ODESSA         CLEAR     41  33  73 S7        30.19F WCI  36
WINK           CLEAR     30  24  78 VRB3      30.18S
$$

FAR WEST/SOUTHWEST MOUNTAINS/TRANS PECOS

CITY           SKY/WX    TMP DP  RH WIND       PRES   REMARKS
ALPINE         MOSUNNY   51  23  33 SW17      30.30S
DRYDEN           N/A     40  35  83 N6        30.25R WCI  36
EL PASO        MOCLDY    38  22  52 N8        30.25S WCI  32
FORT STOCKTON  CLEAR     42  28  57 S12       30.19S WCI  36
GUADALUPE PASS NOT AVBL
MARFA          PTCLDY    23  19  86 NE5       30.30S WCI  17
PECOS          MOSUNNY   30  25  81 CALM      30.20R
$$

DALLAS/FORT WORTH METROPLEX

CITY           SKY/WX    TMP DP  RH WIND       PRES   REMARKS
DFW AIRPORT    PTCLDY    41  31  67 S8        30.24F WCI  36
FTW MEACHAM    CLEAR     45  33  63 S10       30.23F WCI  40
DAL-EXECUTIVE  FAIR      45  30  55 VRB5      30.25F
GRAND PRAIRIE  NOT AVBL
ADDISON        CLEAR     43  30  61 SE10      30.26R WCI  37
MESQUITE       SUNNY     34  30  86 S6        30.29  WCI  29
LANCASTER      SUNNY     33  28  80 S5        30.29S WCI  29
$$

NORTH CENTRAL TEXAS

CITY           SKY/WX    TMP DP  RH WIND       PRES   REMARKS
SHRMAN/DENISON SUNNY     44  34  68 S12       30.24S WCI  38
GAINESVILLE    NOT AVBL
BRIDGEPORT     SUNNY     32  30  94 CALM      30.22F
DENTON         CLEAR     39  31  72 S9        30.23F WCI  33
WAXAHACHIE     SUNNY     40  32  74 SE7       30.28S WCI  35
GRANBURY       SUNNY     37  32  81 CALM      30.26F
$$

WESTERN NORTH TEXAS

CITY           SKY/WX    TMP DP  RH WIND       PRES   REMARKS
WICHITA FALLS  CLEAR     40  32  73 S13       30.14F WCI  32
VERNON         MOSUNNY   39  32  75 S8        30.13F WCI  34
BRECKENRIDGE   SUNNY     46  35  63 S10       30.19S
COMANCHE       CLEAR     46  37  70 S12       30.25R
$$

CENTRAL AND SOUTH CENTRAL TEXAS

CITY           SKY/WX    TMP DP  RH WIND       PRES   REMARKS
AUSTIN/BERGSTM MOCLDY    41  39  93 SW3       30.31F
WACO           CLEAR     41  34  76 SW9       30.30S WCI  35
HILLSBORO      SUNNY     43  31  61 S7        30.28S WCI  39
TEMPLE         CLEAR     37  28  70 S8        30.30R WCI  31
KILLEEN-GRAY   MOCLDY    46  36  66 S8        30.29R
FORT HOOD      PTCLDY    47  32  56 S3        30.29R
GEORGETOWN     NOT AVBL
LAGO VISTA     CLOUDY    52  44  74 S7G16     30.29F
SAN MARCOS     MOCLDY   N/A N/A N/A CALM      30.33S
NEW BRAUNFELS  CLOUDY    47  42  83 N3        30.31R
RANDOLPH AFB   CLOUDY    45  39  81 NW3       30.32R HAZE
SAN ANTONIO    MOCLDY    43  38  82 NW5       30.32R
STINSON        MOCLDY    42  39  89 CALM      30.30S
PLEASANTON     NOT AVBL
LA GRANGE      CLEAR     41  39  93 CALM      30.31S
GIDDINGS       SUNNY     38  36  92 S3        30.35F
$$

EAST TEXAS

CITY           SKY/WX    TMP DP  RH WIND       PRES   REMARKS
PARIS          CLEAR     34  28  80 SE8       30.30S WCI  27
CLARKSVILLE    NOT AVBL
TYLER          CLEAR     39  32  76 S7        30.31F WCI  34
LONGVIEW       CLEAR     36  32  85 S5        30.33F WCI  32
PALESTINE      SUNNY     41  36  80 SE5       30.34S WCI  38
NACOGDOCHES    CLEAR     36  32  87 SE5       30.36F WCI  32
$$

TEXAS HILL COUNTRY AND EDWARDS PLATEAU

CITY           SKY/WX    TMP DP  RH WIND       PRES   REMARKS
LLANO          MOSUNNY   36  34  93 CALM      30.32S
HORSESHOE BAY  CLOUDY    47  40  78 S3        30.29F
KERRVILLE      CLOUDY    51  49  93 S8        30.31R
FREDERICKSBRG  CLOUDY    51  49  92 SW9       30.29S
ROCKSPRINGS    CLOUDY    52  48  87 MISG      30.31R
HONDO          MOCLDY    49  42  77 CALM      30.33S
UVALDE         FOG       48  47  97 CALM      30.32S VSB 1/2
DEL RIO        CLOUDY    50  49  96 SE9       30.27F FOG
$$

SOUTHEAST TEXAS

CITY           SKY/WX    TMP DP  RH WIND       PRES   REMARKS
COLLEGE STN    CLEAR     41  36  82 SE5       30.33S WCI  38
CALDWELL       SUNNY     36  36 100 CALM      30.36R
CROCKETT       SUNNY     43  37  81 SE5       30.38S
BRENHAM        CLEAR     42  38  84 CALM      30.35S
HUNTSVILLE     CLEAR     47  39  74 SE3       30.34S
CONROE         CLEAR     41  37  86 SE5       30.36F WCI  38
HOUSTON BUSH   CLEAR     42  40  92 E6        30.36R WCI  38
HOUSTON HOBBY  CLEAR     47  45  93 E5        30.35F
PERLAND        CLEAR     45  42  89 E13       30.37F WCI  39
WHARTON        SUNNY     46  43  89 E5        30.34S
$$

THE UPPER TEXAS COAST

CITY           SKY/WX    TMP DP  RH WIND       PRES   REMARKS
ORANGE         SUNNY     39  38  96 E3        30.41S
PORT ARTHUR    CLEAR     43  39  86 NE6       30.39R WCI  39
GALVESTON      CLEAR     57  49  74 E7        30.36F
ANGLETON       CLEAR     43  43 100 NE3       30.35S
BAY CITY         N/A     48  47  97 NE6       30.34S
$$

TEXAS COASTAL BEND, RIO GRANDE PLAINS DEEP SOUTH TEXAS

CITY           SKY/WX    TMP DP  RH WIND       PRES   REMARKS
VICTORIA       CLEAR     47  44  90 E5        30.32S
BEEVILLE       FAIR      50  50 100 CALM      30.31S
ROCKPORT       CLOUDY    59  57  93 CALM      30.31R
PORT ARANSAS   SUNNY     59  56  90 W3        30.31R
PORT LAVACA    PTSUNNY   50  49  97 E3        30.32S
CORPUS CHRISTI FOG       51  50  96 CALM      30.31S VSB 1/2
KINGSVILLE NAS FOG       47  47 100 CALM      30.31S VSB 1/2
COTULLA        FOG       48  46  93 CALM      30.31S VSB 3/4
LAREDO         CLEAR     50  50 100 SE5       30.33R
BROWNSVILLE    CLEAR     49  48  97 CALM      30.31S
PORT ISABEL    CLEAR     55  54  96 S6        30.31R
HEBBRONVILLE   FOG       47  47  99 CALM      30.32S VSB 1/2
MCALLEN        FOG       49  49 100 CALM      30.32S VSB 1/4
WESLACO        CLEAR     54  52  93 CALM      30.31S
FALFURRIAS     CLOUDY    46  45  95 CALM      30.31S VSB 3/4
EDINBURG       SUNNY     47  45  93 N5        30.32R
$$



USA.gov is the U.S. government's official web portal to all federal, state and local government web resources and services.